User: anonymous   Login
Location: Brede
(50.9167°N, 0.6000°E)
Time: 03:49:40
(UTC+00:00)
Language:

Courier 1B Rocket - Orbit

View from above orbital plane
View from above orbital plane
View from above satellite
View from above satellite

Ground track
Ground track

The orbit data is extracted from the following two-line orbital elements,

1 00059U 60013B   21138.74275304  .00000115  00000-0  31200-4 0  9998
2 00059  28.2501 295.8906 0189205 220.4005 138.2348 13.52985149991804
Epoch (UTC): 18 May 2021 17:49:33
Eccentricity: 0.0189205
inclination: 28.2501°
perigee height: 920 km
apogee height: 1202 km
right ascension of ascending node: 295.8906°
argument of perigee: 220.4005°
revolutions per day: 13.52985149
mean anomaly at epoch: 138.2348°
orbit number at epoch: 99180

The dashed part of the orbit path shows where the satellite is in the earth's shadow,  

DLR